Augusta Bush, GA

11:54 AM EST on November 22, 2017 (GMT -0500)
Augusta Regional At Bush

Weather History for KAGS - December, 2013

Change the Weather History Date:

Friday, December 6, 2013

  Actual Average Record
Temperature  
Mean Temperature 69 °F 49 °F  
Max Temperature 82 °F 62 °F 82 °F (1998)
Min Temperature 55 °F 36 °F 19 °F (1937)
Degree Days  
Heating Degree Days 0 16  
Month to date heating degree days 41 92  
Since 1 July heating degree days 500 514  
Cooling Degree Days 4 0  
Month to date cooling degree days 4 0  
Year to date cooling degree days 1869 2086  
Growing Degree Days 18 (Base 50)    
Moisture  
Dew Point 61 °F    
Average Humidity 77    
Maximum Humidity 100    
Minimum Humidity 54    
Precipitation  
Precipitation 0.00 in 0.10 in 2.27 in (1983)
Month to date precipitation 0.89 0.63  
Year to date precipitation 49.51 40.81  
Sea Level Pressure  
Sea Level Pressure 30.08 in    
Wind  
Wind Speed 6 mph (SSW)    
Max Wind Speed 18 mph    
Max Gust Speed 25 mph    
Visibility 7 miles    
Events Fog    
T = Trace of Precipitation, MM = Missing Value Source: NWS Daily Summary

Daily Weather History Graph

Daily Weather History Graph

Search for Another Location

Airport or City:

Trip Planner

Search our weather history database for the weather conditions in past years. The results will help you decide how hot, cold, wet, or windy it might be!

Date:

Astronomy

Dec. 06, 2013 Rise Set
Actual Time 7:17 AM EST 5:20 PM EST
Civil Twilight 6:50 AM EST 5:47 PM EST
Nautical Twilight 6:19 AM EST 6:18 PM EST
Astronomical Twilight 5:49 AM EST 6:48 PM EST
Moon 10:29 AM EST (12/6) 9:42 PM EST (12/6)
Length of Visible Light 10h 56m
Length of Day
10h 02m
Waxing Crescent, 19% of the Moon is Illuminated
Dec 6
Waxing Crescent
Dec 9
First Quarter
Dec 17
Full
Dec 25
Last Quarter
Jan 1
New

Hourly Weather History & Observations

Time (EST) Temp. Heat Index Dew Point Humidity Pressure Visibility Wind Dir Wind Speed Gust Speed Precip Events Conditions
12:53 AM 64.0 °F - 62.1 °F 93% 30.08 in 10.0 mi South 3.5 mph - N/A   Clear
1:53 AM 63.0 °F - 62.1 °F 97% 30.09 in 10.0 mi SSW 4.6 mph - N/A   Clear
2:53 AM 63.0 °F - 61.0 °F 93% 30.08 in 10.0 mi South 4.6 mph - N/A   Clear
3:53 AM 63.0 °F - 61.0 °F 93% 30.07 in 10.0 mi South 5.8 mph - N/A   Clear
4:34 AM 60.8 °F - 59.0 °F 94% 30.07 in 1.8 mi Calm Calm - N/A   Partly Cloudy
4:39 AM 59.0 °F - 59.0 °F 100% 30.07 in 0.8 mi East 3.5 mph - N/A   Mist
4:53 AM 59.0 °F - 57.9 °F 96% 30.07 in 0.5 mi Calm Calm - N/A Fog Fog
5:15 AM 57.2 °F - 57.2 °F 100% 30.07 in 0.2 mi Calm Calm - N/A Fog Fog
5:53 AM 55.9 °F - 55.9 °F 100% 30.08 in 0.2 mi Calm Calm - N/A Fog Fog
6:11 AM 55.4 °F - 55.4 °F 100% 30.08 in 0.5 mi Calm Calm - N/A Fog Fog
6:24 AM 55.4 °F - 55.4 °F 100% 30.09 in 1.2 mi Calm Calm - N/A   Partly Cloudy
6:28 AM 55.4 °F - 55.4 °F 100% 30.09 in 3.0 mi South 3.5 mph - N/A   Clear
6:36 AM 57.2 °F - 55.4 °F 94% 30.09 in 1.8 mi Calm Calm - N/A   Clear
6:39 AM 55.4 °F - 55.4 °F 100% 30.09 in 6.0 mi Calm Calm - N/A Fog Clear
6:53 AM 55.9 °F - 55.9 °F 100% 30.10 in 7.0 mi Calm Calm - N/A Fog Partly Cloudy
7:53 AM 57.0 °F - 55.9 °F 96% 30.11 in 7.0 mi Calm Calm - N/A Fog Partly Cloudy
8:53 AM 62.1 °F - 62.1 °F 100% 30.12 in 7.0 mi Calm Calm - N/A Fog Shallow Fog
9:53 AM 68.0 °F - 64.0 °F 87% 30.13 in 10.0 mi SW 4.6 mph - N/A   Scattered Clouds
10:53 AM 73.9 °F - 64.9 °F 73% 30.13 in 10.0 mi SW 10.4 mph - N/A   Scattered Clouds
11:53 AM 78.1 °F - 64.9 °F 64% 30.11 in 10.0 mi SSW 11.5 mph - N/A   Partly Cloudy
12:53 PM 79.0 °F - 64.9 °F 62% 30.07 in 10.0 mi WSW 9.2 mph - N/A   Scattered Clouds
1:53 PM 82.0 °F 83.4 °F 64.0 °F 54% 30.04 in 10.0 mi SSW 13.8 mph 25.3 mph N/A   Scattered Clouds
2:53 PM 80.1 °F 81.5 °F 63.0 °F 56% 30.03 in 10.0 mi SSW 15.0 mph 21.9 mph N/A   Mostly Cloudy
3:53 PM 79.0 °F - 63.0 °F 58% 30.03 in 10.0 mi SSW 15.0 mph 19.6 mph N/A   Scattered Clouds
4:53 PM 77.0 °F - 63.0 °F 62% 30.04 in 10.0 mi South 10.4 mph - N/A   Mostly Cloudy
5:53 PM 73.0 °F - 63.0 °F 71% 30.05 in 10.0 mi South 5.8 mph - N/A   Partly Cloudy
6:53 PM 71.1 °F - 63.0 °F 75% 30.06 in 10.0 mi South 6.9 mph - N/A   Clear
7:53 PM 70.0 °F - 63.0 °F 78% 30.05 in 10.0 mi South 5.8 mph - N/A   Clear
8:53 PM 68.0 °F - 62.1 °F 81% 30.05 in 10.0 mi South 4.6 mph - N/A   Clear
9:53 PM 70.0 °F - 63.0 °F 78% 30.05 in 10.0 mi SSW 6.9 mph - N/A   Clear
10:53 PM 70.0 °F - 63.0 °F 78% 30.06 in 10.0 mi SSW 11.5 mph 16.1 mph N/A   Clear
11:53 PM 70.0 °F - 63.0 °F 78% 30.06 in 10.0 mi SSW 8.1 mph - N/A   Clear